Weather observations for the past three days for
Lubbock, Lubbock International Airport
Metric (Imperial)
Date Time (cdt) Wind (kph) Vis. (km) Weather Sky Cond. Temperature (ºC) Relative Humidity Wind Chill (°C) Heat Index (°C) Pressure Precipitation (cm)
Air Dwpt 6 hour altimeter (cm) sea level (mb) 1 hr 3 hr 6 hr
Max. Min.
13 06:53 SW 15 16.09 Fair CLR 22.8 15 25.6 21.1 62% 76.71 1016.7
13 05:53 S 9 16.09 Fair CLR 21.7 15.6 68% 76.68 1016.4
13 04:53 S 11 16.09 Fair CLR 21.7 15.6 68% 76.63 1015.7
13 03:53 S 15 16.09 Fair CLR 22.8 15.6 64% 76.61 1015.5
13 02:53 S 17 16.09 Fair CLR 23.9 14.4 55% 25 76.63 1015.7
13 01:53 SE 13 16.09 Fair CLR 25 12.8 47% 26 76.66 1015.9
13 00:53 SE 15 16.09 Fair CLR 25.6 12.8 34.4 25 45% 26 76.63 1015.7
12 23:53 SE 19 16.09 Fair CLR 26.1 12.8 44% 26 76.63 1015.6
12 22:53 SE 15 16.09 Fair CLR 27.2 12.8 41% 27 76.61 1015.1
12 21:53 SE 15 16.09 Fair CLR 28.9 12.2 36% 28 76.53 1014.4
12 20:53 SE 17 16.09 A Few Clouds FEW250 31.1 11.1 29% 30 76.5 1014.0
12 19:53 SE 24 16.09 Partly Cloudy SCT095 33.3 11.1 26% 32 76.48 1013.8
12 18:53 S 15 G 31 16.09 Partly Cloudy SCT110 34.4 11.1 35.6 33.9 24% 33 76.45 1013.4
12 17:53 S 17 16.09 Partly Cloudy SCT095 35 11.7 24% 34 76.45 1013.1
12 16:53 S 15 G 30 16.09 Partly Cloudy SCT100 35.6 11.7 23% 34 76.48 1013.4
12 15:53 S 24 G 37 16.09 Partly Cloudy SCT095 35 11.1 23% 33 76.53 1014.1
12 14:53 S 6 G 31 16.09 Partly Cloudy SCT095 35 11.7 24% 34 76.56 1014.4
12 13:53 SE 15 16.09 Partly Cloudy SCT090 SCT120 35 11.7 24% 34 76.58 1014.8
12 12:53 SW 13 G 28 16.09 A Few Clouds FEW090 FEW120 34.4 11.7 34.4 22.8 25% 33 76.63 1015.4
12 11:53 W 11 16.09 A Few Clouds FEW080 FEW120 33.3 12.2 28% 32 76.63 1015.4
12 10:53 W 17 16.09 A Few Clouds FEW120 31.7 14.4 35% 31 76.63 1015.3
12 09:53 W 17 16.09 A Few Clouds FEW120 29.4 16.1 45% 30 76.63 1015.6
12 08:53 W 20 16.09 A Few Clouds FEW250 26.1 15.6 52% 27 76.61 1015.5
12 07:53 W 15 16.09 A Few Clouds FEW250 23.3 13.9 56% 76.56 1014.8
12 06:53 W 19 16.09 A Few Clouds FEW250 23.9 13.9 27.2 23.9 54% 25 76.53 1014.5
12 05:53 SW 20 16.09 Fair CLR 24.4 12.8 48% 26 76.5 1014.1
12 04:53 SW 22 16.09 Fair CLR 25.6 12.8 45% 26 76.48 1013.7
12 03:53 S 20 16.09 Fair CLR 25 12.2 45% 26 76.48 1013.7
12 02:53 S 22 16.09 Fair CLR 25.6 12.2 43% 26 76.48 1013.6
12 01:53 S 17 16.09 Fair CLR 26.1 12.2 42% 26 76.53 1014.0
12 00:53 S 19 16.09 Fair CLR 27.2 11.7 33.9 26.1 38% 27 76.53 1014.1
11 23:53 S 15 16.09 Fair CLR 28.3 11.1 34% 28 76.5 1013.9
11 22:53 S 15 16.09 Fair CLR 29.4 11.1 32% 28 76.48 1013.6
11 21:53 S 11 16.09 A Few Clouds FEW250 28.9 11.7 34% 28 76.45 1013.3
11 20:53 S 13 16.09 A Few Clouds FEW120 FEW250 30.6 11.1 30% 29 76.43 1013.2
11 19:53 S 15 16.09 A Few Clouds FEW100 FEW250 33.3 10.6 25% 32 76.4 1012.9
11 18:53 S 13 16.09 A Few Clouds FEW100 FEW250 33.3 10.6 35.6 32.8 25% 32 76.4 1013.1
11 17:53 S 19 G 28 16.09 A Few Clouds FEW080 FEW250 34.4 11.1 24% 33 76.4 1012.8
11 16:53 SE 7 16.09 A Few Clouds FEW080 FEW250 34.4 9.4 21% 33 76.45 1013.4
11 15:53 SE 13 16.09 A Few Clouds FEW080 34.4 9.4 21% 33 76.5 1014.3
11 14:53 S 19 G 30 16.09 A Few Clouds FEW080 34.4 10.6 23% 33 76.53 1014.4
11 13:53 S 19 16.09 A Few Clouds FEW070 34.4 11.7 25% 33 76.56 1014.6
11 12:53 SW 13 16.09 A Few Clouds FEW070 FEW120 32.8 13.3 33.3 18.9 31% 32 76.61 1015.3
11 11:53 SW 11 16.09 A Few Clouds FEW120 32.2 16.1 38% 32 76.61 1015.5
11 10:53 SW 15 16.09 Mostly Cloudy BKN120 30 16.7 45% 30 76.63 1015.8
11 09:53 W 17 16.09 Partly Cloudy FEW120 SCT150 SCT250 27.8 17.2 53% 28 76.61 1015.7
11 08:53 W 15 16.09 A Few Clouds FEW110 FEW130 FEW250 25 16.1 58% 26 76.61 1015.8
11 07:53 W 9 16.09 A Few Clouds FEW130 FEW250 21.7 15.6 68% 76.58 1015.5
11 06:53 W 9 16.09 A Few Clouds FEW130 18.9 15 25 18.9 78% 76.56 1015.4
11 05:53 SW 9 16.09 A Few Clouds FEW160 21.7 14.4 63% 76.53 1014.6
11 04:53 W 7 16.09 Fair CLR 20.6 15 70% 76.5 1014.5
11 03:53 W 9 16.09 Fair CLR 20 15 73% 76.5 1014.7
11 02:53 SW 6 16.09 Fair CLR 22.2 14.4 61% 76.53 1014.8
11 01:53 S 13 16.09 Fair CLR 24.4 12.8 48% 26 76.56 1015.0
11 00:53 S 9 16.09 A Few Clouds FEW250 23.9 13.3 32.8 23.9 52% 25 76.56 1015.2
10 23:53 S 15 16.09 A Few Clouds FEW250 25.6 12.8 45% 26 76.56 1015.0
10 22:53 S 15 16.09 A Few Clouds FEW250 25.6 13.3 47% 26 76.53 1014.8
10 21:53 S 17 16.09 A Few Clouds FEW065 FEW250 27.2 12.8 41% 27 76.5 1014.4
10 20:53 S 20 16.09 A Few Clouds FEW070 FEW250 28.9 12.8 37% 28 76.45 1013.8
10 19:53 S 24 16.09 A Few Clouds FEW070 FEW250 31.7 10.6 27% 30 76.43 1013.4
10 18:53 S 22 16.09 A Few Clouds FEW070 FEW250 32.8 11.1 33.9 28.9 26% 31 76.4 1013.0
10 17:53 S 19 G 30 16.09 A Few Clouds FEW070 FEW250 33.3 12.8 29% 32 76.4 1013.1
10 16:53 Calm 16.09 A Few Clouds FEW070 FEW250 32.8 11.7 27% 31 76.43 1013.5
10 15:53 Vrbl 6 16.09 A Few Clouds FEW070 FEW250 32.8 13.3 31% 32 76.48 1014.2
10 14:53 Vrbl 9 16.09 Partly Cloudy FEW070 FEW120 SCT150 31.1 13.3 34% 30 76.56 1015.2
10 13:53 SW 15 16.09 Mostly Cloudy FEW065 SCT150 BKN220 30 14 38% 29 76.61 0.0
10 12:53 SW 11 16.09 Mostly Cloudy FEW060 SCT150 BKN220 29 14 40% 29 76.63 0.0
10 11:53 S 15 16.09 Mostly Cloudy FEW055 FEW100 BKN150 BKN250 27 16 51% 27 76.66 0.0
10 10:53 W 9 16.09 Mostly Cloudy FEW100 SCT130 BKN150 BKN250 26.1 15.6 52% 27 76.66 1016.5
10 09:53 Calm 16.09 Mostly Cloudy BKN140 BKN220 24.4 16.1 60% 26 76.63 1016.2
10 08:53 W 9 16.09 Mostly Cloudy FEW080 SCT110 BKN150 BKN220 23.3 16.1 64% 76.61 1016.0
10 07:53 NW 13 16.09 Mostly Cloudy FEW110 BKN140 BKN220 22.2 16.7 71% 76.56 1015.3
Date Time (cdt) Wind (kph) Vis. (km) Weather Sky Cond. Air Dwpt Max. Min. Relative Humidity Wind Chill (°C) Heat Index (°C) altimeter (cm) sea level (mb) 1 hr 3 hr 6 hr
6 hour
Temperature (ºC) Pressure Precipitation (cm)